NORTHEAST SUFFOLK  -  Rip Current Statement Rip Current Statement        NORTHERN NASSAU  -  Rip Current Statement Rip Current Statement        NORTHERN QUEENS  -  Rip Current Statement Rip Current Statement        NORTHWEST SUFFOLK  -  Rip Current Statement Rip Current Statement        SOUTHEAST SUFFOLK  -  Rip Current Statement Rip Current Statement        SOUTHERN NASSAU  -  Rip Current Statement Rip Current Statement        SOUTHERN QUEENS  -  Rip Current Statement Rip Current Statement        SOUTHWEST SUFFOLK  -  Rip Current Statement Rip Current Statement      

Active alerts

Northern Queens
  Details for Northern Queens Rip Current Statement
Southern Queens
  Details for Southern Queens Rip Current Statement
Northern Nassau
  Details for Northern Nassau Rip Current Statement
Southern Nassau
  Details for Southern Nassau Rip Current Statement
Northwest Suffolk
  Details for Northwest Suffolk Rip Current Statement
Southwest Suffolk
  Details for Southwest Suffolk Rip Current Statement
Northeast Suffolk
  Details for Northeast Suffolk Rip Current Statement
Southeast Suffolk
  Details for Southeast Suffolk Rip Current Statement


WXM80 ListenWXM80 Stop

You find our weather info also at:

UK Metoffice

WeatherCloud

Weather Underground

Northeastern Weather Network

AWEKAS

Citizen Weather Observer Program (CWOP)

HAMweather, WeatherForYou, PWS Weather


Weather Underground History page Text

Daily Summary for May 3, 2016 Units:  English    Metric   Both
« Previous Day
Next Day »
Daily Weekly Monthly Yearly Custom
  High: Low: Average:
Temperature: 52.7 °F 50.1 °F 51.3 °F
Dew Point: 51.9 °F 49.5 °F 50.4 °F
Humidity: 98 % 95 % 97 %
Wind Speed: 8.5 mph 0.0 mph 2.4 mph
Wind Gust: 12.7 mph - -
Wind:- - East
Pressure: 29.93 in 29.78 in -
Precipitation: 0.63 in    
Historical Graphs
 
 
Tabular Data for May 3, 2016
Time Temperature Dew Point Pressure Wind Wind Speed Wind Gust Humidity Rainfall Rate (Hourly)
00:00 51.3 °F 49.9 °F 29.91 in NNW 0.1 mph 1.2 mph 95 % 0.00 in
00:05 51.4 °F 50.0 °F 29.92 in NNW 1.4 mph 2.3 mph 95 % 0.00 in
00:10 51.4 °F 50.0 °F 29.92 in NNW 0.6 mph 2.3 mph 95 % 0.00 in
00:15 51.4 °F 50.0 °F 29.93 in NNW 1.7 mph 3.5 mph 95 % 0.00 in
00:20 51.4 °F 50.0 °F 29.93 in NNW 0.5 mph 1.2 mph 95 % 0.00 in
00:26 51.4 °F 50.0 °F 29.92 in Calm   1.2 mph 95 % 0.00 in
00:31 51.5 °F 50.1 °F 29.92 in Calm     95 % 0.00 in
00:36 51.5 °F 50.1 °F 29.92 in Calm     95 % 0.00 in
00:41 51.5 °F 50.1 °F 29.90 in Calm     95 % 0.00 in
00:46 51.5 °F 50.1 °F 29.90 in Calm   1.2 mph 95 % 0.00 in
00:51 51.7 °F 50.6 °F 29.91 in NNW 0.7 mph 2.0 mph 96 % 0.00 in
00:56 51.7 °F 50.6 °F 29.90 in Calm     96 % 0.00 in
01:01 51.7 °F 50.6 °F 29.89 in NNW 0.6 mph 2.0 mph 96 % 0.00 in
01:06 51.8 °F 50.7 °F 29.88 in NNW 1.9 mph 3.0 mph 96 % 0.01 in
01:11 51.8 °F 50.7 °F 29.89 in NNW 0.3 mph 2.3 mph 96 % 0.01 in
01:17 51.9 °F 50.8 °F 29.89 in NNW 0.1 mph 1.0 mph 96 % 0.01 in
01:22 52.0 °F 50.9 °F 29.89 in NNW 0.2 mph 2.3 mph 96 % 0.01 in
01:27 52.0 °F 50.9 °F 29.91 in SW 1.8 mph 2.3 mph 96 % 0.01 in
01:32 52.1 °F 51.0 °F 29.91 in SW 1.8 mph 3.5 mph 96 % 0.01 in
01:37 52.2 °F 51.1 °F 29.91 in Calm   1.0 mph 96 % 0.01 in
01:42 52.2 °F 51.1 °F 29.90 in Calm   1.2 mph 96 % 0.02 in
01:47 52.3 °F 51.2 °F 29.90 in Calm     96 % 0.02 in
01:52 52.3 °F 51.2 °F 29.89 in Calm     96 % 0.03 in
01:57 52.4 °F 51.3 °F 29.89 in Calm     96 % 0.03 in
02:02 52.4 °F 51.3 °F 29.89 in Calm     96 % 0.03 in
02:08 52.4 °F 51.3 °F 29.89 in Calm     96 % 0.03 in
02:13 52.4 °F 51.3 °F 29.89 in Calm     96 % 0.04 in
02:18 52.4 °F 51.3 °F 29.89 in Calm   2.3 mph 96 % 0.05 in
02:23 52.4 °F 51.3 °F 29.89 in Calm     96 % 0.06 in
02:28 52.4 °F 51.3 °F 29.90 in SW 0.1 mph 1.2 mph 96 % 0.07 in
02:33 52.4 °F 51.6 °F 29.89 in Calm   1.2 mph 97 % 0.07 in
02:38 52.4 °F 51.6 °F 29.89 in Calm     97 % 0.08 in
02:43 52.4 °F 51.6 °F 29.88 in SW 0.1 mph 1.2 mph 97 % 0.07 in
02:48 52.4 °F 51.6 °F 29.87 in SW 0.1 mph 1.2 mph 97 % 0.08 in
02:53 52.4 °F 51.6 °F 29.87 in Calm     97 % 0.08 in
02:59 52.4 °F 51.6 °F 29.87 in Calm     97 % 0.09 in
03:04 52.4 °F 51.6 °F 29.87 in Calm     97 % 0.09 in
03:09 52.4 °F 51.3 °F 29.87 in SW 0.9 mph 2.3 mph 96 % 0.09 in
03:14 52.4 °F 51.6 °F 29.88 in South 1.7 mph 3.5 mph 97 % 0.08 in
03:19 52.5 °F 51.7 °F 29.87 in South 0.1 mph 1.0 mph 97 % 0.08 in
03:24 52.6 °F 51.8 °F 29.87 in South 0.3 mph 2.3 mph 97 % 0.08 in
03:29 52.6 °F 51.8 °F 29.86 in South 0.3 mph 2.3 mph 97 % 0.08 in
03:34 52.6 °F 51.8 °F 29.87 in South 0.3 mph 1.2 mph 97 % 0.08 in
03:39 52.7 °F 51.9 °F 29.87 in SSE 0.1 mph 1.2 mph 97 % 0.08 in
03:55 52.6 °F 51.8 °F 29.85 in SE 2.0 mph 3.5 mph 97 % 0.09 in
04:00 52.6 °F 51.8 °F 29.85 in ESE 1.8 mph 3.5 mph 97 % 0.09 in
04:05 52.5 °F 51.7 °F 29.85 in ESE 2.0 mph 3.5 mph 97 % 0.09 in
04:10 52.5 °F 51.7 °F 29.85 in ENE 1.9 mph 3.5 mph 97 % 0.08 in
04:15 52.4 °F 51.6 °F 29.85 in ENE 2.2 mph 3.5 mph 97 % 0.09 in
04:20 52.4 °F 51.6 °F 29.85 in ENE 2.4 mph 4.0 mph 97 % 0.09 in
04:25 52.3 °F 51.5 °F 29.84 in ENE 4.2 mph 6.9 mph 97 % 0.09 in
04:30 52.2 °F 51.4 °F 29.84 in ENE 3.5 mph 6.9 mph 97 % 0.08 in
04:35 52.2 °F 51.4 °F 29.84 in ENE 4.4 mph 5.0 mph 97 % 0.07 in
04:46 52.0 °F 51.2 °F 29.85 in ENE 0.2 mph 2.3 mph 97 % 0.07 in
04:51 52.0 °F 51.2 °F 29.86 in ENE 0.4 mph 2.3 mph 97 % 0.07 in
04:56 52.0 °F 51.2 °F 29.86 in ENE 1.1 mph 2.3 mph 97 % 0.06 in
05:01 52.0 °F 51.2 °F 29.86 in ENE 0.3 mph 1.2 mph 97 % 0.06 in
05:06 51.9 °F 51.1 °F 29.85 in ENE 1.8 mph 2.3 mph 97 % 0.06 in
05:11 51.9 °F 51.1 °F 29.84 in ENE 1.7 mph 2.3 mph 97 % 0.07 in
05:16 51.8 °F 51.0 °F 29.84 in ENE 0.9 mph 2.3 mph 97 % 0.06 in
05:27 51.7 °F 50.9 °F 29.85 in ENE 4.6 mph 4.6 mph 97 % 0.06 in
05:32 51.7 °F 50.9 °F 29.85 in ENE 2.5 mph 4.0 mph 97 % 0.06 in
05:37 51.6 °F 50.8 °F 29.85 in ENE 2.0 mph 4.0 mph 97 % 0.06 in
05:42 51.5 °F 50.7 °F 29.85 in ENE 3.3 mph 5.0 mph 97 % 0.07 in
05:47 51.4 °F 50.6 °F 29.85 in ENE 1.8 mph 3.5 mph 97 % 0.06 in
05:52 51.3 °F 50.5 °F 29.85 in NE 3.5 mph 4.6 mph 97 % 0.07 in
05:57 51.3 °F 50.5 °F 29.86 in ENE 3.8 mph 5.0 mph 97 % 0.08 in
06:02 51.3 °F 50.5 °F 29.85 in ENE 5.0 mph 7.0 mph 97 % 0.08 in
06:07 51.3 °F 50.5 °F 29.85 in ENE 5.0 mph 5.0 mph 97 % 0.09 in
06:12 51.3 °F 50.5 °F 29.86 in ENE 2.8 mph 5.0 mph 97 % 0.09 in
06:18 51.3 °F 50.5 °F 29.86 in North 1.3 mph 3.5 mph 97 % 0.11 in
06:23 51.3 °F 50.5 °F 29.87 in ENE 2.9 mph 5.0 mph 97 % 0.11 in
06:28 51.3 °F 50.5 °F 29.87 in ENE 2.9 mph 5.0 mph 97 % 0.13 in
06:33 51.3 °F 50.5 °F 29.87 in NE 3.1 mph 5.0 mph 97 % 0.15 in
06:38 51.2 °F 50.4 °F 29.87 in ENE 1.8 mph 4.6 mph 97 % 0.17 in
06:43 51.2 °F 50.4 °F 29.87 in ENE 1.7 mph 3.5 mph 97 % 0.18 in
06:48 51.2 °F 50.4 °F 29.87 in ENE 1.0 mph 3.5 mph 97 % 0.19 in
06:53 51.2 °F 50.4 °F 29.87 in NE 1.3 mph 3.5 mph 97 % 0.18 in
06:58 51.2 °F 50.7 °F 29.87 in NE 0.7 mph 2.3 mph 98 % 0.18 in
07:03 51.2 °F 50.4 °F 29.87 in NE 0.9 mph 2.3 mph 97 % 0.17 in
07:14 51.2 °F 50.4 °F 29.87 in NE 1.1 mph 2.3 mph 97 % 0.16 in
07:19 51.2 °F 50.7 °F 29.87 in NE 1.5 mph 2.3 mph 98 % 0.15 in
07:24 51.3 °F 50.8 °F 29.87 in NE 1.5 mph 3.5 mph 98 % 0.14 in
07:29 51.3 °F 50.8 °F 29.87 in NE 2.6 mph 3.5 mph 98 % 0.12 in
07:34 51.4 °F 50.9 °F 29.86 in ENE 2.2 mph 3.5 mph 98 % 0.10 in
07:39 51.4 °F 50.9 °F 29.86 in East 1.7 mph 3.5 mph 98 % 0.08 in
07:44 51.4 °F 50.9 °F 29.86 in NE 2.5 mph 4.0 mph 98 % 0.08 in
07:49 51.4 °F 50.9 °F 29.86 in ENE 3.6 mph 5.0 mph 98 % 0.07 in
07:54 51.3 °F 50.8 °F 29.86 in ENE 4.5 mph 4.5 mph 98 % 0.06 in
08:00 51.3 °F 50.8 °F 29.86 in ENE 3.8 mph 6.9 mph 98 % 0.05 in
08:05 51.3 °F 50.8 °F 29.86 in ENE 5.1 mph 6.9 mph 98 % 0.04 in
08:10 51.2 °F 50.7 °F 29.86 in ENE 3.2 mph 5.8 mph 98 % 0.03 in
08:15 51.2 °F 50.7 °F 29.86 in ENE 4.0 mph 6.9 mph 98 % 0.02 in
08:20 51.2 °F 50.7 °F 29.86 in ENE 4.4 mph 8.1 mph 98 % 0.02 in
08:25 51.2 °F 50.7 °F 29.86 in ENE 5.1 mph 8.1 mph 98 % 0.01 in
08:30 51.2 °F 50.7 °F 29.86 in East 5.5 mph 8.1 mph 98 % 0.01 in
08:40 51.3 °F 50.8 °F 29.85 in East 3.7 mph 5.0 mph 98 % 0.01 in
08:45 51.2 °F 50.7 °F 29.85 in ENE 5.8 mph 8.1 mph 98 % 0.00 in
08:51 51.1 °F 50.6 °F 29.86 in ENE 6.7 mph 9.2 mph 98 % 0.00 in
08:56 51.0 °F 50.5 °F 29.86 in ENE 7.7 mph 11.5 mph 98 % 0.01 in
09:01 50.9 °F 50.4 °F 29.85 in ENE 6.9 mph 10.4 mph 98 % 0.01 in
09:06 50.9 °F 50.4 °F 29.85 in ENE 5.6 mph 10.4 mph 98 % 0.02 in
09:11 50.9 °F 50.4 °F 29.85 in ENE 6.6 mph 11.0 mph 98 % 0.02 in
09:16 50.9 °F 50.4 °F 29.85 in East 4.4 mph 11.5 mph 98 % 0.03 in
09:21 50.9 °F 50.4 °F 29.85 in East 3.3 mph 6.9 mph 98 % 0.03 in
09:26 51.0 °F 50.5 °F 29.85 in ENE 2.2 mph 4.6 mph 98 % 0.03 in
09:31 51.0 °F 50.5 °F 29.85 in ENE 4.5 mph 8.1 mph 98 % 0.03 in
09:36 51.0 °F 50.5 °F 29.85 in ENE 4.2 mph 4.2 mph 98 % 0.03 in
09:42 50.9 °F 50.4 °F 29.85 in ENE 8.2 mph 12.0 mph 98 % 0.03 in
09:47 50.9 °F 50.4 °F 29.85 in ENE 6.7 mph 10.4 mph 98 % 0.04 in
09:52 50.9 °F 50.4 °F 29.84 in East 6.1 mph 11.5 mph 98 % 0.04 in
09:57 51.0 °F 50.5 °F 29.84 in ENE 7.0 mph 9.2 mph 98 % 0.03 in
10:02 51.1 °F 50.6 °F 29.84 in ENE 6.4 mph 11.5 mph 98 % 0.03 in
10:07 51.1 °F 50.6 °F 29.84 in East 7.7 mph 11.5 mph 98 % 0.03 in
10:12 51.1 °F 50.6 °F 29.84 in ENE 8.1 mph 10.4 mph 98 % 0.03 in
10:17 51.1 °F 50.6 °F 29.84 in ENE 7.7 mph 9.2 mph 98 % 0.02 in
10:22 51.0 °F 50.5 °F 29.84 in ENE 6.7 mph 10.4 mph 98 % 0.02 in
10:27 51.0 °F 50.5 °F 29.85 in ENE 4.3 mph 8.0 mph 98 % 0.02 in
10:33 50.8 °F 50.3 °F 29.84 in ENE 7.5 mph 11.5 mph 98 % 0.02 in
10:38 50.8 °F 50.3 °F 29.84 in ENE 4.3 mph 8.1 mph 98 % 0.02 in
10:43 50.7 °F 50.2 °F 29.84 in ENE 4.5 mph 9.0 mph 98 % 0.01 in
10:48 50.7 °F 50.2 °F 29.84 in East 6.3 mph 10.4 mph 98 % 0.01 in
10:53 50.6 °F 50.1 °F 29.84 in ENE 6.6 mph 11.5 mph 98 % 0.01 in
10:58 50.5 °F 50.0 °F 29.84 in ENE 6.8 mph 11.5 mph 98 % 0.01 in
11:08 50.4 °F 49.9 °F 29.84 in ENE 5.7 mph 11.5 mph 98 % 0.00 in
11:13 50.4 °F 49.9 °F 29.84 in East 6.6 mph 11.5 mph 98 % 0.00 in
11:18 50.3 °F 49.8 °F 29.85 in ENE 7.3 mph 11.5 mph 98 % 0.00 in
11:24 50.3 °F 49.8 °F 29.85 in ENE 7.9 mph 11.5 mph 98 % 0.00 in
11:29 50.2 °F 49.7 °F 29.85 in East 7.7 mph 12.7 mph 98 % 0.00 in
11:34 50.1 °F 49.6 °F 29.85 in ENE 5.8 mph 9.2 mph 98 % 0.00 in
11:39 50.1 °F 49.6 °F 29.85 in NE 8.5 mph 11.5 mph 98 % 0.00 in
11:44 50.2 °F 49.7 °F 29.84 in ENE 3.6 mph 6.9 mph 98 % 0.00 in
11:54 50.6 °F 50.1 °F 29.84 in East 5.0 mph 8.1 mph 98 % 0.01 in
11:59 50.8 °F 50.3 °F 29.84 in ENE 4.7 mph 8.0 mph 98 % 0.01 in
12:04 50.9 °F 50.4 °F 29.84 in ENE 4.5 mph 9.2 mph 98 % 0.01 in
12:09 50.7 °F 50.2 °F 29.84 in East 5.7 mph 9.2 mph 98 % 0.01 in
12:15 50.5 °F 50.0 °F 29.83 in ESE 4.8 mph 8.1 mph 98 % 0.01 in
12:20 50.5 °F 50.0 °F 29.84 in ENE 3.7 mph 6.9 mph 98 % 0.01 in
12:25 50.5 °F 50.0 °F 29.83 in East 4.4 mph 6.9 mph 98 % 0.01 in
12:30 50.6 °F 50.1 °F 29.83 in ENE 4.1 mph 6.9 mph 98 % 0.01 in
12:35 50.7 °F 50.2 °F 29.83 in ENE 5.3 mph 11.0 mph 98 % 0.01 in
12:40 50.6 °F 50.1 °F 29.82 in ENE 4.6 mph 9.0 mph 98 % 0.01 in
12:45 50.6 °F 50.1 °F 29.82 in ENE 5.7 mph 9.2 mph 98 % 0.01 in
12:50 50.6 °F 50.1 °F 29.82 in East 5.7 mph 9.0 mph 98 % 0.01 in
12:55 50.5 °F 50.0 °F 29.82 in ENE 5.6 mph 8.1 mph 98 % 0.00 in
13:00 50.6 °F 50.1 °F 29.82 in ENE 3.7 mph 6.9 mph 98 % 0.00 in
13:06 50.6 °F 50.1 °F 29.82 in ENE 4.7 mph 9.2 mph 98 % 0.00 in
13:11 50.6 °F 50.1 °F 29.82 in ENE 4.0 mph 6.9 mph 98 % 0.00 in
13:16 50.6 °F 50.1 °F 29.82 in ENE 4.3 mph 8.1 mph 98 % 0.00 in
13:21 50.5 °F 50.0 °F 29.82 in ENE 3.1 mph 5.8 mph 98 % 0.00 in
13:26 50.5 °F 50.0 °F 29.82 in ENE 3.2 mph 4.0 mph 98 % 0.00 in
13:31 50.5 °F 50.0 °F 29.82 in ENE 3.4 mph 5.0 mph 98 % 0.00 in
13:36 50.5 °F 50.0 °F 29.82 in ENE 3.1 mph 4.6 mph 98 % 0.00 in
13:41 50.6 °F 50.1 °F 29.82 in ENE 3.9 mph 4.6 mph 98 % 0.00 in
13:46 50.6 °F 50.1 °F 29.82 in ENE 2.8 mph 3.5 mph 98 % 0.00 in
13:51 50.7 °F 50.2 °F 29.81 in East 4.6 mph 5.8 mph 98 % 0.00 in
13:57 50.8 °F 50.3 °F 29.81 in East 4.5 mph 6.9 mph 98 % 0.00 in
14:02 50.8 °F 50.3 °F 29.81 in ESE 4.3 mph 6.0 mph 98 % 0.00 in
14:07 50.7 °F 50.2 °F 29.81 in East 5.5 mph 6.9 mph 98 % 0.00 in
14:12 50.6 °F 50.1 °F 29.81 in East 3.7 mph 5.0 mph 98 % 0.00 in
14:17 50.7 °F 50.2 °F 29.81 in ENE 2.9 mph 4.6 mph 98 % 0.00 in
14:22 50.8 °F 50.3 °F 29.81 in East 4.3 mph 5.8 mph 98 % 0.00 in
14:27 50.9 °F 50.4 °F 29.81 in ENE 2.9 mph 5.0 mph 98 % 0.00 in
14:32 51.0 °F 50.5 °F 29.81 in East 4.2 mph 6.9 mph 98 % 0.00 in
14:37 51.1 °F 50.6 °F 29.81 in ENE 3.3 mph 6.9 mph 98 % 0.00 in
14:42 51.2 °F 50.4 °F 29.81 in East 3.2 mph 4.6 mph 97 % 0.00 in
14:48 51.3 °F 50.5 °F 29.81 in East 2.3 mph 5.8 mph 97 % 0.00 in
14:58 51.3 °F 50.5 °F 29.80 in East 2.8 mph 4.6 mph 97 % 0.00 in
15:03 51.4 °F 50.6 °F 29.80 in East 2.1 mph 3.5 mph 97 % 0.00 in
15:08 51.6 °F 50.8 °F 29.79 in ENE 2.4 mph 3.5 mph 97 % 0.00 in
15:13 51.9 °F 51.1 °F 29.79 in ENE 2.1 mph 3.5 mph 97 % 0.00 in
15:18 52.0 °F 51.2 °F 29.79 in East 2.2 mph 3.5 mph 97 % 0.00 in
15:21 52.0 °F 51.2 °F 29.79 in East 2.1 mph 3.5 mph 97 % 0.00 in
15:27 52.2 °F 51.4 °F 29.79 in ENE 1.5 mph 3.0 mph 97 % 0.00 in
15:37 52.1 °F 51.3 °F 29.79 in ENE 1.2 mph 3.5 mph 97 % 0.00 in
15:42 52.1 °F 51.3 °F 29.79 in ENE 2.0 mph 3.5 mph 97 % 0.00 in
15:47 52.0 °F 50.9 °F 29.79 in ENE 1.3 mph 3.5 mph 96 % 0.00 in
15:52 51.9 °F 50.8 °F 29.79 in ENE 1.2 mph 3.0 mph 96 % 0.00 in
15:57 51.9 °F 50.8 °F 29.79 in ENE 1.2 mph 3.5 mph 96 % 0.00 in
16:02 51.9 °F 50.8 °F 29.80 in Calm   1.2 mph 96 % 0.00 in
16:07 51.9 °F 50.8 °F 29.79 in ENE 1.9 mph 3.0 mph 96 % 0.00 in
16:12 51.8 °F 50.7 °F 29.79 in ENE 1.9 mph 2.3 mph 96 % 0.00 in
16:18 51.8 °F 50.7 °F 29.80 in ENE 3.0 mph 4.6 mph 96 % 0.00 in
16:28 51.6 °F 50.2 °F 29.80 in ENE 2.3 mph 3.5 mph 95 % 0.00 in
16:33 51.6 °F 50.2 °F 29.80 in ENE 1.2 mph 2.3 mph 95 % 0.00 in
16:38 51.6 °F 50.2 °F 29.80 in NE 2.2 mph 3.5 mph 95 % 0.00 in
16:43 51.5 °F 50.1 °F 29.80 in ENE 2.0 mph 3.5 mph 95 % 0.00 in
16:48 51.5 °F 50.1 °F 29.80 in NE 2.3 mph 3.5 mph 95 % 0.00 in
16:53 51.5 °F 50.1 °F 29.80 in NE 0.7 mph 2.3 mph 95 % 0.00 in
16:58 51.5 °F 50.4 °F 29.79 in NE 1.7 mph 3.5 mph 96 % 0.00 in
17:03 51.6 °F 50.5 °F 29.79 in East 1.8 mph 3.5 mph 96 % 0.00 in
17:09 51.7 °F 50.6 °F 29.79 in East 1.7 mph 3.5 mph 96 % 0.00 in
17:14 51.8 °F 50.7 °F 29.78 in East 2.1 mph 3.5 mph 96 % 0.00 in
17:19 51.8 °F 50.7 °F 29.78 in East 2.7 mph 4.6 mph 96 % 0.00 in
17:24 51.9 °F 50.8 °F 29.78 in East 3.1 mph 4.6 mph 96 % 0.00 in
17:29 51.9 °F 50.8 °F 29.78 in East 2.7 mph 3.5 mph 96 % 0.00 in
17:34 52.0 °F 50.9 °F 29.79 in East 1.7 mph 3.5 mph 96 % 0.00 in
17:39 52.0 °F 50.9 °F 29.79 in East 1.9 mph 3.5 mph 96 % 0.00 in
17:44 51.8 °F 50.7 °F 29.79 in East 2.3 mph 5.0 mph 96 % 0.00 in
17:49 51.8 °F 50.7 °F 29.80 in East 0.6 mph 3.5 mph 96 % 0.00 in
17:54 51.7 °F 50.6 °F 29.80 in East 1.6 mph 2.3 mph 96 % 0.00 in
18:00 51.6 °F 50.5 °F 29.80 in East 2.5 mph 3.5 mph 96 % 0.00 in
18:05 51.6 °F 50.5 °F 29.80 in East 1.1 mph 2.3 mph 96 % 0.00 in
18:10 51.5 °F 50.4 °F 29.80 in East 1.3 mph 2.0 mph 96 % 0.00 in
18:15 51.5 °F 50.4 °F 29.80 in East 0.6 mph 2.3 mph 96 % 0.00 in
18:20 51.5 °F 50.4 °F 29.80 in East 0.9 mph 2.3 mph 96 % 0.00 in
18:25 51.5 °F 50.4 °F 29.80 in East 0.3 mph 1.2 mph 96 % 0.00 in
18:30 51.5 °F 50.4 °F 29.80 in Calm   2.3 mph 96 % 0.00 in
18:35 51.4 °F 50.3 °F 29.80 in East 1.0 mph 2.3 mph 96 % 0.00 in
18:40 51.4 °F 50.3 °F 29.81 in East 0.2 mph 2.3 mph 96 % 0.00 in
18:45 51.4 °F 50.3 °F 29.81 in East 0.8 mph 2.3 mph 96 % 0.00 in
18:51 51.3 °F 50.2 °F 29.81 in East 1.4 mph 3.5 mph 96 % 0.00 in
18:56 51.3 °F 50.2 °F 29.80 in East 2.2 mph 3.5 mph 96 % 0.00 in
19:01 51.2 °F 50.1 °F 29.80 in East 0.1 mph 1.2 mph 96 % 0.00 in
19:06 51.2 °F 50.1 °F 29.81 in East 0.3 mph 1.2 mph 96 % 0.00 in
19:11 51.2 °F 50.1 °F 29.81 in East 0.1 mph 1.2 mph 96 % 0.00 in
19:16 51.2 °F 50.1 °F 29.81 in East 0.6 mph 1.2 mph 96 % 0.00 in
19:21 51.1 °F 50.0 °F 29.82 in Calm     96 % 0.00 in
19:26 51.1 °F 50.0 °F 29.82 in East 0.6 mph 1.2 mph 96 % 0.00 in
19:31 51.1 °F 50.0 °F 29.82 in Calm     96 % 0.00 in
19:37 51.0 °F 49.9 °F 29.81 in East 0.1 mph 1.0 mph 96 % 0.00 in
19:42 51.0 °F 49.9 °F 29.82 in East 1.5 mph 2.3 mph 96 % 0.00 in
19:47 51.0 °F 49.9 °F 29.82 in East 1.2 mph 3.5 mph 96 % 0.00 in
19:52 51.0 °F 49.9 °F 29.82 in East 0.3 mph 1.2 mph 96 % 0.00 in
19:57 50.9 °F 49.8 °F 29.82 in Calm     96 % 0.00 in
20:02 50.9 °F 49.8 °F 29.82 in East 0.1 mph 1.2 mph 96 % 0.00 in
20:07 50.9 °F 49.8 °F 29.82 in Calm     96 % 0.00 in
20:12 50.8 °F 49.7 °F 29.83 in East 0.3 mph 2.3 mph 96 % 0.00 in
20:17 50.7 °F 49.6 °F 29.83 in East 0.4 mph 1.2 mph 96 % 0.00 in
20:22 50.7 °F 49.9 °F 29.83 in East 0.9 mph 2.0 mph 97 % 0.00 in
20:28 50.6 °F 49.8 °F 29.83 in Calm     97 % 0.00 in
20:33 50.6 °F 49.8 °F 29.82 in Calm   2.3 mph 97 % 0.00 in
20:38 50.6 °F 49.5 °F 29.83 in Calm     96 % 0.00 in
20:43 50.6 °F 49.8 °F 29.83 in Calm     97 % 0.00 in
20:48 50.6 °F 49.8 °F 29.83 in Calm     97 % 0.00 in
20:53 50.6 °F 49.8 °F 29.83 in East 0.1 mph 1.2 mph 97 % 0.00 in
21:03 50.6 °F 49.8 °F 29.83 in East 1.3 mph 3.5 mph 97 % 0.00 in
21:08 50.6 °F 49.8 °F 29.84 in Calm   1.2 mph 97 % 0.00 in
21:13 50.5 °F 49.7 °F 29.84 in East 0.2 mph 1.2 mph 97 % 0.00 in
21:19 50.5 °F 49.7 °F 29.84 in East 1.3 mph 2.3 mph 97 % 0.00 in
21:24 50.5 °F 49.7 °F 29.84 in East 1.3 mph 3.5 mph 97 % 0.00 in
21:29 50.5 °F 49.7 °F 29.84 in East 1.6 mph 3.5 mph 97 % 0.00 in
21:34 50.4 °F 49.6 °F 29.84 in Calm     97 % 0.00 in
21:39 50.5 °F 49.7 °F 29.84 in East 0.9 mph 2.3 mph 97 % 0.00 in
21:44 50.4 °F 49.6 °F 29.84 in East 0.5 mph 2.3 mph 97 % 0.00 in
21:49 50.4 °F 49.6 °F 29.84 in East 0.7 mph 3.5 mph 97 % 0.00 in
21:54 50.4 °F 49.6 °F 29.84 in East 0.2 mph 2.3 mph 97 % 0.00 in
21:59 50.4 °F 49.6 °F 29.84 in East 0.9 mph 2.0 mph 97 % 0.00 in
22:04 50.4 °F 49.6 °F 29.83 in East 1.3 mph 2.3 mph 97 % 0.00 in
22:10 50.5 °F 49.7 °F 29.83 in East 0.8 mph 3.5 mph 97 % 0.00 in
22:15 50.5 °F 49.7 °F 29.83 in East 1.3 mph 3.5 mph 97 % 0.00 in
22:20 50.4 °F 49.6 °F 29.83 in East 1.0 mph 2.3 mph 97 % 0.00 in
22:25 50.4 °F 49.6 °F 29.83 in East 1.8 mph 4.6 mph 97 % 0.00 in
22:30 50.4 °F 49.6 °F 29.83 in East 2.0 mph 3.5 mph 97 % 0.00 in
22:35 50.4 °F 49.9 °F 29.83 in East 3.1 mph 4.6 mph 98 % 0.00 in
22:40 50.3 °F 49.8 °F 29.83 in East 2.2 mph 3.5 mph 98 % 0.00 in
22:45 50.3 °F 49.8 °F 29.82 in East 1.2 mph 3.5 mph 98 % 0.00 in
22:50 50.3 °F 49.8 °F 29.82 in East 1.7 mph 4.6 mph 98 % 0.00 in
22:55 50.3 °F 49.5 °F 29.82 in East 2.5 mph 5.0 mph 97 % 0.00 in
23:01 50.3 °F 49.5 °F 29.82 in East 2.6 mph 5.0 mph 97 % 0.00 in
23:06 50.3 °F 49.5 °F 29.82 in East 2.2 mph 5.8 mph 97 % 0.00 in
23:11 50.3 °F 49.5 °F 29.81 in East 2.5 mph 4.6 mph 97 % 0.00 in
23:16 50.3 °F 49.5 °F 29.81 in East 1.9 mph 3.5 mph 97 % 0.00 in
23:21 50.3 °F 49.8 °F 29.81 in NNE 1.2 mph 4.0 mph 98 % 0.00 in
23:26 50.3 °F 49.8 °F 29.81 in ENE 1.6 mph 3.5 mph 98 % 0.00 in
23:31 50.3 °F 49.8 °F 29.81 in ENE 2.6 mph 4.0 mph 98 % 0.00 in
23:36 50.3 °F 49.8 °F 29.81 in ENE 1.9 mph 3.5 mph 98 % 0.00 in
23:41 50.3 °F 49.8 °F 29.81 in ENE 2.8 mph 3.5 mph 98 % 0.00 in
23:46 50.3 °F 49.8 °F 29.81 in ENE 2.0 mph 3.0 mph 98 % 0.00 in
23:52 50.3 °F 49.8 °F 29.81 in ENE 0.5 mph 2.3 mph 98 % 0.00 in
23:57 50.3 °F 49.8 °F 29.81 in ENE 0.8 mph 2.3 mph 98 % 0.00 in
Crab Meadow Weather
Compliments of Weather Underground - 3 mb

Script developed by  Jim McMurry - jmcmurry@mwt.net Adapted for the template by  Wim van der Kuil - Leuven-Template.eu

Extremes: Currently the driest state is Nevada with an annual rainfall of only nine inches.